Change the Weather History Date:

Tuesday, June 25, 2013

  Actual Average Record
Temperature  
Mean Temperature 76 °F -  
Max Temperature 89 °F 80 °F 94 °F (1952)
Min Temperature 63 °F 54 °F 41 °F (1979)
Cooling Degree Days 10    
Growing Degree Days 26 (Base 50)    
Moisture  
Dew Point 67 °F    
Average Humidity 73    
Maximum Humidity 97    
Minimum Humidity 51    
Precipitation  
Precipitation 0.00 in - - ()
Sea Level Pressure  
Sea Level Pressure 29.90 in    
Wind  
Wind Speed 3 mph (SW)    
Max Wind Speed 12 mph    
Max Gust Speed 21 mph    
Visibility 9 miles    
Events Rain , Thunderstorm    
Averages and records for this station are not official NWS values.
T = Trace of Precipitation, MM = Missing Value Source: NWS Daily Summary

Daily Weather History Graph

Daily Weather History Graph

Search for Another Location

Airport or City:

Trip Planner

Search our weather history database for the weather conditions in past years. The results will help you decide how hot, cold, wet, or windy it might be!

Date:

Astronomy

Jun. 25, 2013 Rise Set
Actual Time 5:26 AM EDT 8:35 PM EDT
Civil Twilight 4:53 AM EDT 9:09 PM EDT
Nautical Twilight 4:09 AM EDT 9:52 PM EDT
Astronomical Twilight 3:18 AM EDT 10:43 PM EDT
Moon 10:17 PM EDT (6/25) 8:05 AM EDT (6/25)
Length of Visible Light 16h 15m
Length of Day
15h 08m
Waning Gibbous, 93% of the Moon is Illuminated
Jun 25
Waning Gibbous
Jun 30
Last Quarter
Jul 8
New
Jul 15
First Quarter
Jul 22
Full

Hourly Weather History & Observations

Time (EDT) Temp. Heat Index Dew Point Humidity Pressure Visibility Wind Dir Wind Speed Gust Speed Precip Events Conditions
12:53 AM 69.1 °F - 64.9 °F 87% 30.00 in 10.0 mi Calm Calm - 0.00 in   Clear
1:53 AM 66.0 °F - 64.0 °F 93% 29.98 in 8.0 mi Calm Calm - N/A   Clear
2:53 AM 66.0 °F - 64.0 °F 93% 29.96 in 9.0 mi Calm Calm - N/A   Clear
3:53 AM 64.9 °F - 63.0 °F 93% 29.97 in 7.0 mi Calm Calm - N/A   Clear
4:53 AM 64.0 °F - 63.0 °F 96% 29.96 in 6.0 mi Calm Calm - N/A   Clear
5:53 AM 63.0 °F - 62.1 °F 97% 29.97 in 4.0 mi Calm Calm - N/A   Clear
6:53 AM 66.0 °F - 64.0 °F 93% 29.97 in 5.0 mi SSW 3.5 mph - N/A   Clear
7:53 AM 71.1 °F - 66.9 °F 87% 29.97 in 6.0 mi SSW 5.8 mph - N/A   Clear
8:53 AM 75.0 °F - 66.9 °F 76% 29.96 in 9.0 mi SW 4.6 mph - N/A   Clear
9:53 AM 79.0 °F - 69.1 °F 72% 29.96 in 10.0 mi SSW 5.8 mph - N/A   Clear
10:53 AM 82.9 °F 87.5 °F 71.1 °F 67% 29.95 in 10.0 mi SSW 5.8 mph - N/A   Clear
11:53 AM 84.9 °F 90.1 °F 71.1 °F 63% 29.93 in 10.0 mi Variable 6.9 mph - N/A   Partly Cloudy
12:12 PM 80.6 °F 84.6 °F 71.6 °F 74% 29.95 in 8.0 mi NW 6.9 mph - 0.00 in Rain , Thunderstorm Light Thunderstorms and Rain
12:33 PM 78.8 °F - 68.0 °F 69% 29.93 in 10.0 mi East 3.5 mph - 0.00 in   Mostly Cloudy
12:40 PM 80.6 °F 83.2 °F 68.0 °F 65% 29.93 in 10.0 mi Calm Calm - 0.00 in Thunderstorm Mostly Cloudy
12:53 PM 84.0 °F 87.0 °F 68.0 °F 58% 29.91 in 10.0 mi Calm Calm - 0.00 in   Partly Cloudy
1:53 PM 88.0 °F 91.4 °F 68.0 °F 51% 29.88 in 10.0 mi SW 11.5 mph 20.7 mph N/A   Scattered Clouds
2:53 PM 87.1 °F 91.3 °F 69.1 °F 55% 29.86 in 10.0 mi SSW 10.4 mph 20.7 mph N/A   Partly Cloudy
3:53 PM 84.9 °F 88.8 °F 69.1 °F 59% 29.85 in 10.0 mi SW 10.4 mph 16.1 mph 0.00 in   Mostly Cloudy
4:04 PM 82.4 °F 86.3 °F 69.8 °F 66% 29.87 in 7.0 mi West 6.9 mph - 0.00 in Rain , Thunderstorm Light Rain
4:19 PM 84.2 °F 89.6 °F 71.6 °F 66% 29.86 in 10.0 mi WNW 4.6 mph - 0.00 in   Scattered Clouds
4:53 PM 84.9 °F 88.8 °F 69.1 °F 59% 29.85 in 10.0 mi Variable 6.9 mph - 0.00 in   Clear
5:53 PM 84.9 °F 89.4 °F 70.0 °F 61% 29.80 in 10.0 mi SW 9.2 mph - N/A   Clear
6:53 PM 84.0 °F 87.8 °F 69.1 °F 61% 29.81 in 10.0 mi SW 5.8 mph - N/A   Clear
7:53 PM 81.0 °F 83.3 °F 66.9 °F 62% 29.83 in 10.0 mi SW 3.5 mph - N/A   Clear
8:53 PM 79.0 °F - 66.9 °F 66% 29.83 in 10.0 mi SW 3.5 mph - N/A   Scattered Clouds
9:53 PM 77.0 °F - 66.9 °F 71% 29.84 in 10.0 mi SSW 5.8 mph - N/A   Scattered Clouds
10:53 PM 75.0 °F - 66.9 °F 76% 29.84 in 10.0 mi Variable 5.8 mph - N/A   Mostly Cloudy
11:53 PM 75.0 °F - 66.9 °F 76% 29.82 in 10.0 mi SW 5.8 mph - N/A   Partly Cloudy